Tracking 32523 objects as of 14-Dec-2025
HD Live streaming from Space Station
objects crossing your sky now

STARLINK-31661

Track STARLINK-31661 now!
10-day predictions
STARLINK-31661 is classified as:


NORAD ID: 59735
Int'l Code: 2024-090F
Perigee: 490.1 km
Apogee: 490.4 km
Inclination: 43.0 °
Period: 94.3 minutes
Semi major axis: 6861 km
RCS: Unknown
Launch date: May 13, 2024
Source: United States (US)
Launch site: AIR FORCE EASTERN TEST RANGE (AFETR)
Your satellite tracking list
Your tracking list is empty




NASA's NSSDC Master Catalog

Two Line Element Set (TLE):
1 59735U 24090F   25347.58913684 -.00002601  00000-0 -85093-4 0  9999
2 59735  43.0018 302.7023 0000278 240.7010 119.3814 15.27560805 90358
Source of the keplerian elements: AFSPC